Location: Annappes
(50.6251°N, 3.1479°E)
Time: 08:55:17
(UTC+00:00)

Daily predictions for brighter satellites

Satellite Brightness Start Highest point End
(mag) Time Altitude Azimuth Time Altitude Azimuth Time Altitude Azimuth
H-2A R/B 3.9 17:09:27 10° SSW 17:14:19 38° W 17:19:21 10° NNW
Meteor PRIRODA 3.5 17:13:41 10° SSE 17:17:12 70° ENE 17:20:46 10° N
ATLAS CENTAUR R/B 2.0 17:14:24 10° SW 17:19:04 66° NW 17:23:35 10° NE
NOAA 6 4.0 17:15:36 10° SSE 17:20:44 72° ENE 17:25:55 10° NNW
Cosmos 468 Rocket 4.1 17:21:46 10° NNW 17:26:52 54° ENE 17:31:54 10° SE
Cosmos 1844 Rocket 2.7 17:24:23 10° NNW 17:29:55 58° NE 17:35:24 10° SE
COSMO-SKYMED 1 3.1 17:27:15 10° NNE 17:31:19 37° E 17:35:21 10° SSE
SL-08 R/B 3.4 17:31:13 10° NNE 17:36:12 79° ESE 17:41:09 10° SSW
Cosmos 1328 3.7 17:36:17 10° S 17:40:16 83° E 17:44:14 10° NNE
Lacrosse 5 2.3 17:35:35 10° SSW 17:40:27 46° SE 17:44:52 12° ENE
Cosmos 1954 Rocket 4.2 17:35:57 10° S 17:40:59 50° ESE 17:46:01 10° NNE
USA 215 3.8 17:34:48 10° SE 17:41:18 64° SW 17:47:50 10° WNW
Cosmos 1763 Rocket 3.4 17:37:19 10° NNW 17:42:32 84° ENE 17:47:39 10° SSE
CZ-4B DEB 4.2 17:37:20 10° SSE 17:42:41 60° ENE 17:48:06 10° N
Lacrosse 5 rocket 1.0 17:40:11 10° NW 17:43:44 68° NNE 17:47:23 10° ESE
CZ-4B R/B 3.7 17:39:02 10° SE 17:43:53 36° ENE 17:48:51 10° N
Cosmos 1726 Rocket 3.7 17:40:35 10° N 17:44:47 48° ENE 17:48:58 10° SSE
Cosmos 1461 3.7 17:41:54 10° S 17:45:50 36° ESE 17:49:26 13° NE
Meteor 1-11 4.4 17:40:49 10° S 17:46:26 54° E 17:52:02 10° NNE
ATLAS 2AS CENTAUR R/B 3.0 17:39:30 10° NW 17:46:35 75° SW 17:53:13 10° SSE
Cosmos 1892 2.6 17:43:47 10° S 17:47:27 61° E 17:51:11 10° NNE
Cosmos 1844 3.7 17:43:22 10° NNW 17:49:11 69° ENE 17:54:56 10° SE
SL-08 ROCKET BODY 4.3 17:43:34 10° N 17:49:29 86° E 17:55:20 10° S
IKONOS-2 4.5 17:46:10 10° NNE 17:50:28 88° ESE 17:54:44 10° SSW
Gblst 52 Del rocket 4.3 17:47:10 10° WSW 17:52:47 67° SSE 17:57:10 16° ENE
Cosmos 540 Rocket 3.4 17:48:35 10° NNW 17:53:45 70° ENE 17:58:52 10° SSE
Cosmos 1825 2.4 17:50:28 10° SSE 17:53:58 44° E 17:57:31 10° NNE
Cosmos 2219 Rocket 3.4 17:51:27 10° SE 17:55:20 20° E 17:57:32 16° ENE
Cosmos 2278 4.1 17:49:51 10° SW 17:55:29 65° WNW 18:01:12 10° NNE
Cosmos 2360 Rocket 2.7 17:50:23 10° S 17:55:36 40° ESE 18:00:51 10° NE
Cosmos 841 Rocket 3.7 17:50:56 10° NNW 17:56:04 48° ENE 18:01:08 10° SE
CZ-4C R/B 3.2 17:57:07 10° NNE 18:00:55 56° ESE 18:04:29 10° S
Cosmos 1745 Rocket 4.4 17:55:19 10° N 18:01:09 39° ENE 18:06:54 10° SE
Cosmos 2278 Rocket 3.5 17:59:15 10° NNW 18:03:38 22° NE 18:05:53 18° ENE
CZ-4 R/B 2.1 18:00:41 10° SE 18:04:21 32° ENE 18:07:58 10° N
Okean O Rocket 2.2 18:02:33 10° SE 18:06:30 34° ENE 18:10:30 10° N
Cosmos 2333 Rocket 2.9 18:02:23 10° S 18:07:23 33° ESE 18:11:22 15° NE
Cosmos 2322 Rocket 2.1 18:02:50 10° SSW 18:08:23 69° ESE 18:14:00 10° NNE
USA 281 4.4 18:02:52 10° NNE 18:08:55 41° NW 18:14:59 10° WSW
IRIDIUM 114 4.4 18:04:44 10° N 18:09:53 54° E 18:14:59 10° SSE
Okean-O 4.3 18:11:23 16° NE 18:11:23 16° NE 18:13:30 10° NNE
SKYMED 3 4.4 18:08:14 10° NNE 18:12:21 65° ESE 18:16:29 10° S
RESURS DK-1 2.3 18:08:34 10° NNW 18:12:43 86° WSW 18:16:50 10° SSE
BlueWalker 3 2.2 18:09:08 10° WNW 18:12:59 57° N 18:14:55 26° ENE
Cosmos 1340 2.7 18:09:51 10° N 18:13:27 50° ENE 18:17:02 10° SSE
TRACE 4.5 18:10:13 10° NNE 18:13:54 72° ESE 18:17:32 10° S
ATLAS 5 CENTAUR R/B 3.6 18:11:31 10° NW 18:14:21 17° N 18:16:59 12° NE
IRIDIUM 103 4.3 18:13:52 10° N 18:19:05 64° E 18:24:16 10° SSE
Cosmos 1709 Rocket 4.5 18:13:53 10° N 18:19:29 35° ENE 18:25:00 10° SE
SKYMED 2 3.7 18:15:13 10° NNE 18:19:35 77° WNW 18:23:55 10° SSW
ISS -0.3 18:20:24 10° SW 18:20:41 10° SW 18:20:59 10° SW
Cosmos 1606 3.4 18:17:22 10° N 18:20:48 30° ENE 18:20:57 30° ENE
SL-4 R/B 1.6 18:17:55 10° W 18:21:27 80° N 18:22:55 34° E
COSMOS 2428 4.0 18:18:42 10° SE 18:21:43 19° ESE 18:21:43 19° ESE
In-Cosmos 22 Rocket 4.2 18:17:20 10° S 18:23:09 82° E 18:29:01 10° NNE
SL-16 R/B 2.4 18:18:05 10° SW 18:23:45 71° WNW 18:29:27 10° NNE
Cosmos 2058 Rocket 2.9 18:20:40 10° N 18:25:05 71° E 18:29:30 10° SSE
Cosmos 676 Rocket 4.0 18:20:28 10° SSW 18:25:46 84° WNW 18:31:04 10° NNE
IGS 5A 3.9 18:26:03 29° ESE 18:27:18 36° ENE 18:31:06 10° N
SL-08 R/B 4.4 18:21:03 10° N 18:27:21 83° E 18:33:40 10° S
Cosmos 1553 Rocket 3.9 18:21:27 10° S 18:27:28 68° E 18:33:38 10° NNE
Cosmos 2333 4.5 18:22:13 10° S 18:27:31 44° ESE 18:31:01 20° NE
MOS 1-B 4.3 18:22:33 10° SSE 18:28:21 80° ENE 18:34:11 10° NNW
YAOGAN 1 2.5 18:25:01 10° SSE 18:29:20 87° ENE 18:33:41 10° NNW
CSL-04 Rocket 4.2 18:29:39 26° ESE 18:31:39 35° ENE 18:36:31 10° N
Cosmos 1980 Rocket 4.1 18:30:25 10° W 18:35:01 24° NW 18:39:37 10° NNE
Feng Yun 1-1 Rocket 4.2 18:29:38 10° SE 18:35:03 59° ENE 18:40:24 10° N
IRIDIUM 106 4.3 18:32:08 10° N 18:37:24 89° E 18:42:38 10° S
Genesis I 3.2 18:34:01 10° SSW 18:37:55 62° SE 18:38:52 45° ENE
BREEZE-M DEB (TANK) 3.9 18:24:56 10° SW 18:38:16 45° SSE 18:40:19 30° ESE
Cosmos 1633 2.6 18:35:15 10° SSW 18:38:35 69° WNW 18:41:56 10° N
Cosmos 1943 Rocket 3.7 18:35:02 10° N 18:38:54 18° NNE 18:39:19 18° NE
Cosmos 2322 4.1 18:42:48 10° S 18:48:04 39° ESE 18:48:47 37° E
Cosmos 44 Rocket 3.4 18:47:01 10° SSW 18:51:29 46° ESE 18:51:44 46° ESE
Cosmos 1869 4.2 18:50:37 10° NNW 18:54:23 48° W 18:58:10 10° S
ATLAS CENTAUR R/B 3.7 18:54:55 10° WNW 18:58:22 20° NNW 19:00:39 14° NNE
Cosmos-2242 4.3 18:58:10 10° N 19:00:15 26° NNE 19:00:15 26° NNE
S3M 3.9 18:56:55 10° S 19:03:17 76° E 19:09:41 10° NNE
IRS-1C Rocket 4.4 19:11:02 46° NE 19:11:02 46° NE 19:15:26 10° N
Landsat 7 3.8 19:11:41 62° NE 19:11:41 62° NE 19:16:01 10° N
SJ-6B 3.6 19:18:32 43° NNW 19:18:32 43° NNW 19:21:19 10° NNW
Lacrosse 4 Rocket 3.7 19:15:22 10° N 19:16:37 14° N 19:16:37 14° N
Resurs 01 Rocket 3.8 19:22:58 15° N 19:22:58 15° N 19:23:47 10° N
Cosmos 1812 Rocket 4.4 19:17:44 10° N 19:20:44 41° N 19:20:44 41° N
Lacrosse 5 rocket 3.0 19:19:23 10° WNW 19:22:20 24° SW 19:22:52 23° SSW
Lacrosse 5 2.2 19:18:19 10° WSW 19:23:23 60° NNW 19:24:05 54° NNE
CZ-4B R/B 4.3 19:19:19 10° S 19:24:23 42° W 19:29:35 10° NNW
Cosmos 1461 4.1 19:20:30 10° WSW 19:24:39 41° NW 19:25:35 36° N
Cosmos 2315 Rocket 3.9 19:18:36 10° S 19:24:52 69° E 19:31:14 10° NNE
Spot 1 4.5 19:25:56 53° SW 19:25:56 53° SW 19:29:09 10° SSW
Meteor 2-2 Rocket 4.4 19:21:14 10° N 19:25:55 53° NE 19:25:55 53° NE
Cosmos 1814 Rocket 4.2 19:23:06 10° NNW 19:28:27 70° WSW 19:30:18 41° S
BREEZE-M DEB (TANK) 4.1 19:24:29 10° W 19:28:28 48° S 19:30:46 37° SE
Cosmos 1850 Rocket 4.5 19:30:32 10° SW 19:35:38 57° WNW 19:37:49 33° N
Cosmos 2219 Rocket 2.1 19:33:00 10° SSW 19:38:37 80° WNW 19:39:20 67° N
CZ-4 R/B 3.3 19:35:39 10° SSW 19:39:14 29° W 19:42:48 10° NW
Cosmos 2360 Rocket 3.2 19:34:13 10° WSW 19:39:35 43° NW 19:43:00 21° N
USA 81 4.4 19:36:14 10° SSW 19:41:27 64° W 19:46:44 10° N
Okean O Rocket 3.3 19:38:54 10° SSW 19:42:51 32° W 19:46:49 10° NNW
Gblst 52 Del rocket 4.1 19:38:55 10° W 19:44:07 76° NW 19:44:07 76° NW
Okean-O 4.2 19:48:55 28° NNW 19:48:55 28° NNW 19:51:04 10° NNW
Cosmos 2278 Rocket 2.3 19:42:52 10° NNW 19:47:46 66° NNW 19:47:46 66° NNW
Cosmos 2333 Rocket 2.9 19:45:58 10° SW 19:51:29 51° NW 19:53:27 36° N
BlueWalker 3 4.0 19:47:52 10° WNW 19:49:43 27° WNW 19:49:43 27° WNW
Cosmos 2322 Rocket 3.9 19:48:08 10° WSW 19:52:57 28° NW 19:56:27 16° N
ATLAS 5 CENTAUR R/B 3.8 19:56:26 10° NNW 19:58:21 19° N 19:58:21 19° N
SL-4 R/B 4.5 19:57:09 10° W 19:58:14 18° W 19:58:14 18° W
Cosmos 2369 Rocket 4.2 19:59:22 10° NNW 20:01:13 17° N 20:01:13 17° N
COSMOS 2428 3.8 20:00:34 10° SSW 20:03:49 36° SW 20:03:49 36° SW
SL-16 R/B 4.4 20:04:49 10° W 20:08:54 20° NW 20:12:08 13° N
Cosmos 1943 Rocket 3.7 20:18:11 10° NNW 20:20:51 28° NNW 20:20:51 28° NNW
